TimeCST,TemperatureF,Dew PointF,Humidity,Sea Level PressureIn,VisibilityMPH,Wind Direction,Wind SpeedMPH,Gust SpeedMPH,PrecipitationIn,Events,Conditions,WindDirDegrees,DateUTC
12:53 AM,73.9,70.0,87,29.70,7.0,South,12.7,-,N/A,,Overcast,170,2013-01-13 06:53:00
1:53 AM,73.9,70.0,87,29.73,7.0,South,5.8,-,N/A,,Overcast,170,2013-01-13 07:53:00
2:32 AM,75.2,69.8,83,29.73,7.0,SSW,8.1,-,N/A,,Overcast,200,2013-01-13 08:32:00
2:53 AM,75.0,70.0,84,29.74,7.0,South,8.1,-,N/A,,Overcast,190,2013-01-13 08:53:00
3:53 AM,75.0,69.1,82,29.74,8.0,SSW,9.2,-,N/A,,Overcast,200,2013-01-13 09:53:00
4:53 AM,75.0,69.1,82,29.75,7.0,SSW,6.9,-,N/A,,Overcast,210,2013-01-13 10:53:00
5:53 AM,73.0,69.1,87,29.78,6.0,SSW,5.8,-,N/A,,Overcast,210,2013-01-13 11:53:00
6:03 AM,71.6,68.0,88,29.79,6.0,WNW,11.5,20.7,N/A,,Overcast,290,2013-01-13 12:03:00
6:53 AM,57.0,54.0,89,29.87,6.0,NNW,21.9,32.2,0.00,Rain,Light Rain,340,2013-01-13 12:53:00
7:53 AM,55.0,52.0,89,29.94,6.0,NNW,18.4,29.9,0.00,,Overcast,340,2013-01-13 13:53:00
8:53 AM,53.1,48.9,86,29.99,6.0,NNW,21.9,33.4,0.00,,Overcast,340,2013-01-13 14:53:00
9:38 AM,53.6,46.4,77,30.02,7.0,NNW,25.3,32.2,N/A,,Overcast,340,2013-01-13 15:38:00
9:53 AM,54.0,46.0,75,30.03,8.0,NNW,23.0,32.2,N/A,,Overcast,340,2013-01-13 15:53:00
10:53 AM,55.9,43.0,62,30.04,9.0,NNW,20.7,32.2,N/A,,Overcast,340,2013-01-13 16:53:00
11:53 AM,55.9,42.1,60,30.03,9.0,NNW,21.9,-,N/A,,Overcast,340,2013-01-13 17:53:00
12:12 PM,57.2,42.8,59,30.02,9.0,North,18.4,24.2,N/A,,Overcast,350,2013-01-13 18:12:00
12:53 PM,57.9,41.0,53,30.02,9.0,NNW,18.4,-,N/A,,Overcast,340,2013-01-13 18:53:00
1:53 PM,57.9,42.1,56,30.01,9.0,NNW,19.6,26.5,N/A,,Overcast,340,2013-01-13 19:53:00
2:53 PM,59.0,41.0,51,30.01,9.0,NNW,18.4,-,N/A,,Overcast,340,2013-01-13 20:53:00
3:53 PM,59.0,39.9,49,30.01,9.0,North,17.3,-,N/A,,Overcast,350,2013-01-13 21:53:00
4:53 PM,59.0,43.0,55,30.01,9.0,North,16.1,-,N/A,,Overcast,360,2013-01-13 22:53:00
5:53 PM,57.9,42.1,56,30.03,9.0,North,12.7,-,N/A,,Mostly Cloudy,10,2013-01-13 23:53:00
6:53 PM,57.9,43.0,58,30.04,10.0,North,11.5,-,N/A,,Overcast,360,2013-01-14 00:53:00
7:53 PM,57.9,41.0,53,30.06,10.0,North,9.2,-,N/A,,Overcast,350,2013-01-14 01:53:00
8:53 PM,57.9,42.1,56,30.07,10.0,NNW,9.2,-,N/A,,Overcast,340,2013-01-14 02:53:00
9:53 PM,57.9,41.0,53,30.07,10.0,North,12.7,-,N/A,,Overcast,350,2013-01-14 03:53:00
10:32 PM,57.2,39.2,51,30.07,10.0,NNW,9.2,-,N/A,,Overcast,340,2013-01-14 04:32:00
10:53 PM,57.0,42.1,57,30.05,10.0,North,9.2,-,N/A,,Overcast,350,2013-01-14 04:53:00